Wind_Speed
13 13 14 16 17 17 16 15 15 15 15 15 15 15 15 15 14 14 14 15 15 15 14 14 13 12 11 11 10 10 10 9 9 9 9 10 10 11 11 11 12 12
13 13 14 16 17 17 17 16 16 15 15 15 15 15 15 15 14 13 13 15 15 15 16 15 14 12 11 10 10 10 9 9 8 8 8 9 9 10 10 10 10 11
13 13 13 15 17 17 17 17 16 15 15 14 14 14 14 14 14 13 13 15 15 16 16 15 14 12 11 10 10 9 8 8 7 7 8 8 8 9 9 9 10 10
13 12 13 14 15 16 17 17 16 16 15 14 14 14 14 15 14 14 14 14 15 15 15 15 14 12 10 9 9 8 7 7 6 6 7 7 8 8 8 9 9 10
14 13 13 14 14 14 15 16 16 16 15 15 14 14 14 15 15 15 15 15 15 15 14 13 13 12 10 9 9 8 7 7 7 7 6 6 6 7 7 8 9 10
15 14 14 13 13 13 13 14 15 15 15 15 15 15 15 15 16 16 16 15 15 14 14 13 12 11 10 9 9 8 8 8 7 7 7 7 7 7 8 8 8 9
16 16 15 14 13 13 13 13 14 15 15 15 15 15 14 15 16 16 16 16 15 14 14 13 12 12 11 10 10 9 9 9 8 8 8 9 8 8 8 9 9 9
17 17 17 15 14 13 13 13 13 14 14 15 14 15 15 15 15 16 16 16 16 15 14 14 13 12 12 11 10 10 9 9 10 10 10 10 10 10 10 10 10 10
19 18 18 17 16 15 14 13 13 13 14 14 14 15 15 14 15 15 16 16 16 16 15 14 14 13 13 12 11 11 10 10 11 11 11 11 11 12 11 11 11 10
19 19 18 18 17 16 15 15 14 14 14 14 15 15 15 14 15 15 15 16 16 16 15 15 15 14 13 13 12 12 12 12 12 12 12 12 13 13 13 13 12 12
20 20 20 19 18 17 16 16 16 15 16 16 16 16 16 15 15 15 15 15 15 15 15 15 15 15 14 14 14 14 13 13 13 13 13 13 14 14 15 15 15 15
20 21 21 21 20 19 19 18 18 17 17 17 17 17 17 17 16 16 16 16 15 15 15 15 15 15 15 15 14 14 14 14 14 14 14 14 14 15 15 16 16 16
21 21 21 21 21 21 21 20 20 20 19 18 18 18 18 17 17 17 16 16 16 16 16 16 16 17 17 16 16 16 15 15 15 15 15 15 15 16 16 16 17 17
21 21 21 22 22 22 23 22 22 21 21 20 20 19 19 18 18 18 17 17 17 17 18 18 18 19 18 18 18 18 17 17 17 17 17 17 16 17 17 17 18 17
22 22 22 22 23 23 23 23 23 22 22 22 21 21 20 19 19 19 19 19 19 19 20 20 20 20 20 20 20 19 18 18 19 19 19 18 17 17 17 18 18 18
22 22 22 22 23 23 23 23 23 22 22 22 22 22 22 21 21 21 21 21 20 20 21 20 21 21 21 21 20 19 19 19 19 19 19 18 17 17 18 19 19 20
24 24 24 23 23 23 23 23 23 23 23 23 23 23 23 23 22 22 22 22 21 21 20 20 20 19 18 19 19 18 18 19 19 19 19 18 17 18 19 19 21 21
26 25 25 24 24 24 24 24 24 24 24 24 23 23 23 23 23 23 23 22 22 21 20 20 20 18 16 17 17 17 18 19 19 19 18 18 17 18 19 20 21 22
28 28 26 26 25 25 25 25 24 25 25 25 24 24 24 25 25 25 24 24 24 23 21 21 20 17 16 16 16 17 18 19 20 20 19 19 18 19 20 20 21 22
29 29 28 27 26 26 25 25 25 25 25 25 24 24 24 25 25 25 26 27 27 24 22 23 21 17 17 18 17 18 19 19 20 21 21 21 20 20 20 20 21 21
30 31 31 28 26 26 26 25 26 26 26 25 24 24 24 24 24 25 26 28 28 23 22 24 21 17 17 19 18 19 20 20 21 21 21 22 22 21 21 20 20 20
29 30 30 27 26 26 26 26 26 26 26 26 25 25 25 24 25 25 26 27 28 25 24 24 19 15 17 18 18 19 19 20 21 21 21 22 22 21 21 19 20 20
31 29 26 26 27 27 27 26 27 26 26 26 26 26 26 26 25 26 26 27 27 26 26 24 18 15 18 19 19 20 20 20 21 21 21 22 22 21 21 20 20 20
33 30 28 27 27 28 28 28 27 26 26 25 25 26 26 25 25 25 26 26 27 26 27 26 21 18 20 22 22 21 21 21 22 21 22 23 23 23 23 22 22 22
36 33 32 30 28 28 28 28 27 27 25 25 25 25 25 25 25 25 25 25 26 25 26 26 24 22 22 23 24 24 24 24 24 24 24 24 24 24 24 24 24 24
35 33 32 31 30 29 28 27 27 26 24 24 24 25 26 27 28 28 27 26 26 26 26 27 27 26 24 24 25 26 26 26 26 26 26 26 26 26 27 27 27 26
Wind_Direction
188 189 190 190 189 187 187 187 185 184 184 186 189 189 189 190 190 190 193 195 196 193 193 193 191 191 191 192 197 202 204 208 212 213 217 221 222 225 226 228 231 230
186 190 191 192 193 191 189 189 189 188 186 187 190 192 194 196 196 195 197 198 197 196 196 194 192 193 194 195 200 205 206 209 215 217 222 227 228 230 232 235 238 237
187 188 191 193 195 195 192 193 194 192 190 190 192 194 196 200 202 202 202 202 200 199 198 197 198 199 199 199 203 204 203 205 210 216 221 228 231 234 238 241 244 246
189 188 190 192 195 196 196 197 198 196 196 197 198 197 199 203 205 207 206 205 204 203 204 205 205 204 202 202 205 206 208 211 212 217 220 225 231 235 240 245 248 250
195 194 194 193 195 198 198 198 199 199 201 203 204 205 207 209 209 209 209 208 208 209 211 213 211 209 208 206 211 216 219 224 225 226 231 232 234 238 242 247 252 253
202 201 200 200 199 200 200 199 200 201 204 206 209 212 213 212 212 212 211 211 212 213 215 218 217 217 218 218 221 226 231 236 236 237 245 248 246 246 247 249 252 255
209 207 207 207 205 204 203 201 201 203 205 207 210 213 213 213 213 213 213 213 214 215 216 218 221 222 226 229 232 235 240 245 247 245 250 255 255 254 254 255 256 259
211 211 211 211 209 208 207 206 206 206 208 209 211 213 213 212 213 214 215 215 216 219 219 221 224 225 230 235 240 246 248 251 253 253 254 258 261 262 260 261 261 263
214 214 214 214 213 212 212 211 212 212 213 213 213 215 214 213 213 214 216 216 217 220 221 223 227 229 233 239 246 252 255 256 258 258 258 258 261 264 265 264 265 266
217 217 217 218 216 215 215 216 217 219 220 220 218 219 218 216 215 215 217 217 218 220 222 224 227 231 236 243 249 255 258 259 260 261 261 260 260 262 264 264 265 265
219 219 220 221 221 220 219 219 220 222 225 225 225 225 224 222 222 220 221 222 222 223 225 227 230 234 238 242 248 253 256 257 258 259 260 261 262 263 264 265 265 264
220 220 222 222 222 223 224 223 223 224 227 228 228 229 229 228 228 227 228 230 230 232 233 235 237 240 242 243 245 248 251 252 253 254 255 257 260 262 263 264 264 264
223 224 224 224 223 224 225 226 227 228 229 230 230 231 231 232 233 234 235 236 238 240 241 242 244 246 246 247 246 246 248 250 251 251 250 252 255 259 261 262 262 263
224 226 227 228 227 225 225 225 227 228 230 231 231 232 232 233 235 237 239 240 242 243 245 246 248 249 250 250 249 248 247 248 250 250 249 250 252 256 258 260 260 261
224 225 227 230 231 230 229 228 228 228 230 231 232 232 232 232 234 235 238 239 241 242 245 247 249 250 250 250 250 248 247 247 249 250 250 250 250 253 256 258 259 260
225 225 226 229 231 233 234 233 233 232 231 232 233 233 232 232 232 233 236 239 241 242 244 246 247 247 247 247 247 245 244 245 248 250 251 251 252 254 256 257 258 257
222 223 225 228 230 233 235 235 236 235 234 234 234 234 233 233 233 234 235 238 240 241 241 241 242 243 244 244 243 241 241 242 246 249 251 252 253 254 255 257 258 257
221 220 222 225 228 229 231 234 235 236 237 237 236 236 234 233 233 234 234 236 239 240 240 241 241 240 242 243 242 241 242 244 247 248 250 251 252 253 256 259 262 265
224 221 220 223 226 229 230 232 234 236 238 238 238 238 237 237 236 236 234 233 233 233 235 238 239 239 242 244 243 243 244 245 247 249 249 250 251 253 257 259 263 269
226 224 221 220 223 227 230 232 233 236 239 241 242 242 243 244 245 245 245 243 239 234 233 236 235 232 239 245 244 245 247 247 249 251 253 256 257 257 260 262 264 265
226 226 222 219 222 226 229 231 234 235 238 241 244 246 247 248 248 251 254 256 256 252 245 242 236 227 233 240 242 245 248 250 252 255 257 260 261 261 263 265 265 266
231 229 223 218 222 227 229 231 233 234 236 237 240 243 245 247 248 251 255 259 263 264 257 250 242 233 237 242 243 246 247 250 254 256 258 260 261 261 261 261 262 265
237 236 230 223 223 227 229 232 233 234 235 236 237 240 243 245 247 251 254 258 262 265 263 258 249 242 247 250 250 250 251 251 254 255 257 259 259 259 260 261 263 265
238 240 237 230 226 227 229 230 232 234 235 236 239 241 244 246 248 250 254 258 260 261 261 259 252 245 248 252 253 254 254 254 255 255 256 258 259 260 261 263 264 265
236 239 240 237 235 235 233 231 230 231 234 237 241 244 246 248 250 251 253 256 257 257 258 259 257 250 247 250 253 254 255 256 258 258 258 259 259 260 262 262 262 263
236 233 234 238 241 240 237 235 231 230 233 239 243 247 250 252 253 253 252 251 251 251 253 257 259 256 251 250 253 256 257 258 258 258 257 257 257 258 261 262 262 263
Height
3226 3227 3228 3229 3230 3231 3233 3234 3235 3236 3237 3238 3239 3240 3241 3242 3243 3244 3245 3245 3246 3247 3247 3248 3249 3250 3251 3251 3252 3252 3253 3253 3254 3254 3255 3255 3256 3256 3257 3257 3257 3258
3225 3226 3228 3229 3230 3231 3232 3233 3234 3236 3237 3238 3239 3240 3241 3242 3243 3243 3244 3245 3246 3247 3247 3248 3249 3249 3250 3250 3251 3251 3252 3252 3253 3253 3254 3254 3255 3255 3256 3256 3256 3257
3225 3226 3227 3228 3229 3231 3232 3233 3234 3235 3236 3237 3238 3239 3240 3241 3242 3243 3244 3245 3245 3246 3247 3247 3248 3249 3249 3250 3250 3250 3251 3251 3251 3252 3253 3253 3254 3254 3255 3255 3256 3256
3224 3226 3227 3228 3229 3230 3231 3232 3234 3235 3236 3237 3238 3239 3239 3240 3241 3242 3243 3244 3245 3246 3246 3247 3247 3248 3248 3249 3249 3250 3250 3250 3251 3251 3252 3252 3253 3253 3254 3254 3255 3255
3223 3225 3226 3227 3228 3229 3230 3231 3233 3234 3235 3235 3237 3237 3238 3239 3240 3241 3242 3243 3244 3245 3246 3246 3247 3247 3247 3248 3248 3249 3249 3249 3250 3250 3251 3252 3252 3253 3253 3253 3253 3254
3222 3224 3225 3226 3227 3228 3229 3230 3231 3233 3234 3235 3236 3237 3237 3239 3239 3240 3241 3242 3243 3244 3244 3245 3246 3246 3246 3247 3247 3248 3248 3249 3249 3250 3250 3251 3251 3251 3252 3252 3252 3252
3221 3223 3224 3225 3227 3228 3228 3230 3231 3232 3233 3234 3235 3236 3237 3238 3239 3239 3240 3241 3242 3242 3243 3244 3244 3245 3245 3246 3246 3247 3247 3248 3248 3249 3249 3250 3250 3250 3251 3251 3251 3251
3221 3222 3223 3224 3226 3227 3228 3229 3230 3231 3232 3233 3234 3235 3236 3237 3237 3238 3239 3240 3240 3241 3241 3242 3243 3243 3244 3244 3245 3246 3246 3247 3247 3248 3248 3248 3249 3249 3250 3250 3250 3250
3220 3221 3222 3223 3224 3226 3227 3228 3229 3230 3231 3232 3233 3234 3234 3235 3236 3237 3237 3238 3239 3239 3240 3241 3241 3242 3243 3243 3244 3244 3245 3246 3246 3246 3247 3247 3247 3248 3248 3249 3249 3249
3218 3220 3221 3222 3223 3224 3225 3226 3227 3228 3230 3231 3232 3232 3233 3234 3234 3235 3236 3236 3237 3238 3238 3239 3240 3240 3241 3242 3242 3243 3243 3244 3244 3245 3245 3246 3246 3246 3247 3247 3248 3248
3217 3218 3219 3220 3222 3223 3224 3225 3226 3227 3228 3229 3230 3231 3232 3232 3233 3234 3234 3235 3236 3236 3237 3238 3238 3239 3239 3240 3241 3241 3242 3242 3243 3243 3244 3244 3245 3245 3245 3246 3246 3246
3215 3217 3218 3219 3220 3221 3222 3223 3224 3225 3226 3227 3228 3229 3230 3231 3231 3232 3233 3233 3234 3235 3235 3236 3236 3237 3238 3238 3239 3239 3240 3241 3241 3242 3242 3242 3243 3243 3244 3244 3244 3245
3214 3215 3217 3217 3218 3219 3220 3221 3222 3223 3224 3225 3226 3227 3228 3229 3229 3230 3231 3231 3232 3233 3233 3234 3234 3235 3236 3236 3237 3238 3238 3239 3239 3240 3240 3240 3241 3241 3242 3242 3243 3243
3213 3214 3215 3216 3217 3218 3218 3219 3220 3221 3222 3223 3224 3225 3226 3227 3227 3228 3229 3229 3230 3231 3231 3232 3232 3233 3233 3234 3235 3236 3236 3237 3238 3238 3238 3238 3239 3239 3240 3240 3240 3241
3210 3212 3213 3214 3215 3216 3217 3218 3218 3219 3220 3221 3222 3223 3224 3224 3225 3226 3226 3227 3228 3228 3229 3229 3230 3231 3231 3232 3233 3234 3235 3235 3235 3236 3236 3236 3236 3237 3238 3238 3238 3239
3207 3209 3210 3211 3213 3214 3215 3217 3217 3218 3219 3219 3220 3221 3221 3222 3223 3224 3224 3225 3225 3226 3227 3227 3228 3228 3229 3229 3230 3231 3232 3233 3233 3233 3234 3234 3235 3235 3236 3236 3236 3236
3204 3206 3207 3209 3210 3212 3213 3214 3216 3216 3217 3217 3218 3219 3219 3220 3221 3221 3222 3222 3223 3223 3224 3225 3225 3226 3227 3228 3228 3229 3230 3230 3230 3231 3232 3232 3233 3233 3233 3233 3233 3233
3201 3203 3204 3206 3207 3209 3210 3211 3213 3214 3215 3215 3216 3217 3218 3218 3219 3219 3220 3220 3221 3221 3222 3222 3222 3224 3225 3226 3226 3227 3227 3228 3228 3229 3229 3230 3231 3231 3231 3231 3231 3230
3200 3201 3201 3203 3204 3206 3207 3209 3210 3211 3212 3213 3214 3215 3216 3216 3216 3217 3217 3217 3217 3217 3218 3219 3220 3222 3223 3223 3224 3225 3225 3225 3226 3226 3227 3227 3228 3228 3228 3229 3229 3228
3197 3199 3199 3200 3202 3203 3205 3206 3207 3209 3210 3211 3212 3213 3214 3215 3215 3216 3216 3215 3214 3214 3215 3215 3216 3219 3220 3221 3222 3223 3223 3223 3223 3224 3224 3225 3225 3226 3226 3226 3226 3226
3194 3196 3197 3197 3199 3200 3202 3203 3204 3206 3207 3208 3210 3211 3212 3213 3213 3214 3214 3215 3214 3215 3215 3213 3214 3216 3218 3218 3220 3221 3221 3221 3221 3222 3223 3223 3223 3224 3224 3224 3224 3224
3193 3195 3194 3195 3196 3198 3199 3200 3201 3202 3204 3205 3207 3208 3209 3210 3210 3211 3212 3212 3213 3215 3215 3213 3213 3215 3216 3216 3217 3218 3219 3219 3219 3219 3220 3220 3221 3221 3222 3222 3222 3222
3190 3192 3192 3192 3193 3194 3196 3197 3199 3200 3201 3202 3203 3204 3205 3206 3207 3208 3209 3209 3210 3212 3212 3212 3212 3213 3214 3215 3215 3215 3216 3217 3217 3217 3217 3217 3218 3219 3219 3220 3220 3220
3186 3189 3190 3190 3190 3191 3192 3194 3196 3197 3199 3200 3201 3202 3203 3204 3205 3205 3206 3206 3207 3208 3208 3209 3210 3211 3212 3213 3214 3213 3214 3214 3215 3215 3215 3215 3215 3215 3216 3217 3218 3217
3182 3184 3186 3188 3188 3189 3190 3191 3193 3195 3196 3197 3199 3199 3200 3201 3201 3202 3202 3203 3204 3205 3205 3206 3207 3208 3209 3210 3211 3211 3211 3211 3212 3213 3213 3212 3212 3212 3212 3213 3214 3214
3178 3179 3182 3185 3186 3187 3189 3190 3191 3192 3193 3195 3196 3196 3197 3197 3197 3198 3198 3199 3200 3201 3202 3202 3204 3205 3205 3206 3208 3208 3208 3209 3209 3209 3210 3210 3209 3209 3209 3209 3209 3210